Sable Island, Nova Scotia

3:13 PM ADT on September 22, 2017 (GMT -0300)
Sable Island

Weather History for CWSA - October, 2013

Change the Weather History Date:

Sunday, October 6, 2013

  Actual Average Record
Temperature  
Mean Temperature 56 °F -  
Max Temperature 58 °F 55 °F 69 °F (2005)
Min Temperature 54 °F 46 °F 33 °F (2016)
Degree Days  
Heating Degree Days 9    
Growing Degree Days 6 (Base 50)    
Moisture  
Dew Point 46 °F    
Average Humidity 67    
Maximum Humidity 77    
Minimum Humidity 50    
Precipitation  
Precipitation 0.00 in 0.17 in - ()
Sea Level Pressure  
Sea Level Pressure 30.15 in    
Wind  
Wind Speed 14 mph ()    
Max Wind Speed 23 mph    
Max Gust Speed 30 mph    
Visibility 9.0 miles    
Events Rain    
Averages and records for this station are not official NWS values.
T = Trace of Precipitation, MM = Missing Value Source: Averaged Metar Reports

Daily Weather History Graph

Daily Weather History Graph

Search for Another Location

Airport or City:

Trip Planner

Search our weather history database for the weather conditions in past years. The results will help you decide how hot, cold, wet, or windy it might be!

Date:

Astronomy

Oct. 06, 2013 Rise Set
Actual Time 7:03 AM ADT 6:31 PM ADT
Civil Twilight 6:35 AM ADT 7:00 PM ADT
Nautical Twilight 6:01 AM ADT 7:33 PM ADT
Astronomical Twilight 5:28 AM ADT 8:07 PM ADT
Moon 8:47 AM ADT (10/6) 7:22 PM ADT (10/6)
Length of Visible Light 12h 25m
Length of Day
11h 27m
Waxing Crescent, 3% of the Moon is Illuminated
Oct 6
Waxing Crescent
Oct 11
First Quarter
Oct 18
Full
Oct 26
Last Quarter
Nov 3
New

Hourly Weather History & Observations

Time (ADT) Temp. Dew Point Humidity Pressure Visibility Wind Dir Wind Speed Gust Speed Precip Events Conditions
12:00 AM 57.2 °F 48.2 °F 72% 30.03 in 9.0 mi WNW 10.4 mph - N/A   Scattered Clouds
1:00 AM 57.2 °F 48.2 °F 72% 30.02 in 9.0 mi West 8.1 mph - N/A   Partly Cloudy
2:00 AM 57.2 °F 50.0 °F 77% 30.02 in 9.0 mi West 6.9 mph - N/A   Partly Cloudy
3:00 AM 59.0 °F 50.0 °F 72% 30.01 in 9.0 mi WNW 8.1 mph - N/A   Mostly Cloudy
4:00 AM 57.2 °F 48.2 °F 72% 30.01 in 9.0 mi NW 12.7 mph - N/A   Scattered Clouds
5:00 AM 55.4 °F 46.4 °F 72% 30.01 in 9.0 mi NW 12.7 mph - N/A   Scattered Clouds
6:00 AM 56 °F 47 °F 64% 30.03 in 9 mi NW 17.3 mph - -  
6:00 AM 55.4 °F 48.2 °F 77% 30.03 in 9.0 mi NW 16.1 mph 21.9 mph N/A   Partly Cloudy
7:00 AM 55.4 °F 44.6 °F 67% 30.04 in 9.0 mi NW 19.6 mph - N/A   Scattered Clouds
8:00 AM 55.4 °F 46.4 °F 72% 30.06 in 9.0 mi NW 20.7 mph - N/A   Partly Cloudy
9:00 AM 55 °F 43 °F 53% 30.08 in 9 mi NNW 21.9 mph - -  
9:00 AM 55.4 °F 42.8 °F 63% 30.08 in 9.0 mi NW 21.9 mph - N/A   Scattered Clouds
10:00 AM 55.4 °F 41.0 °F 58% 30.10 in 9.0 mi NNW 19.6 mph 27.6 mph N/A   Partly Cloudy
11:00 AM 55.4 °F 42.8 °F 63% 30.12 in 9.0 mi NNW 23.0 mph 29.9 mph N/A   Mostly Cloudy
12:00 PM 58 °F 44 °F 50% 30.13 in 9 mi NNW 19.6 mph - -  
12:00 PM 57.2 °F 44.6 °F 63% 30.13 in 9.0 mi NNW 18.4 mph 25.3 mph N/A   Scattered Clouds
1:00 PM 55.4 °F 42.8 °F 63% 30.13 in 9.0 mi NNW 23.0 mph 29.9 mph N/A   Mostly Cloudy
2:00 PM 57.2 °F 44.6 °F 63% 30.13 in 9.0 mi NNW 19.6 mph 28.8 mph N/A   Overcast
3:00 PM 56 °F 45 °F 57% 30.14 in 9 mi NNW 19.6 mph - -  
3:00 PM 57.2 °F 44.6 °F 63% 30.14 in 9.0 mi NNW 19.6 mph 25.3 mph N/A   Mostly Cloudy
4:00 PM 57.2 °F 44.6 °F 63% 30.16 in 9.0 mi NNW 19.6 mph - N/A   Partly Cloudy
5:00 PM 57.2 °F 44.6 °F 63% 30.18 in 9.0 mi NNW 18.4 mph - N/A   Mostly Cloudy
6:00 PM 56 °F 47 °F 63% 30.21 in 9 mi North 17.3 mph - -  
6:00 PM 57.2 °F 46.4 °F 67% 30.21 in 9.0 mi NNW 17.3 mph - N/A   Mostly Cloudy
7:00 PM 55.4 °F 46.4 °F 72% 30.22 in 9.0 mi North 18.4 mph - N/A   Partly Cloudy
8:00 PM 55.4 °F 44.6 °F 67% 30.25 in 9.0 mi North 17.3 mph - N/A   Partly Cloudy
9:00 PM 55 °F 47 °F 66% 30.27 in 9 mi North 17.3 mph - -  
9:00 PM 55.4 °F 46.4 °F 72% 30.27 in 9.0 mi North 17.3 mph - N/A   Partly Cloudy
9:58 PM 55.4 °F 48.2 °F 77% 30.28 in 9.0 mi North 15.0 mph - N/A   Mostly Cloudy
9:59 PM 55.4 °F 46.4 °F 72% 30.28 in 9.0 mi North 15.0 mph - N/A Rain Light Rain
10:00 PM 55.4 °F 46.4 °F 72% 30.29 in 9.0 mi North 15.0 mph - N/A Rain Light Rain
10:17 PM 55.4 °F 46.4 °F 72% 30.29 in 9.0 mi North 16.1 mph - N/A   Mostly Cloudy
10:33 PM 55.4 °F 46.4 °F 72% 30.29 in 9.0 mi North 12.7 mph 18.4 mph N/A   Partly Cloudy
10:58 PM 55.4 °F 48.2 °F 77% 30.29 in 9.0 mi NNE 12.7 mph - N/A   Mostly Cloudy
11:00 PM 55.4 °F 46.4 °F 72% 30.30 in 9.0 mi NNE 10.4 mph - N/A   Mostly Cloudy